Manchester, NH

10:29 AM EST on December 07, 2016 (GMT -0500)
Manchester

Weather History for KMHT - January, 2014

Change the Weather History Date:

Saturday, January 25, 2014

  Actual Average Record
Temperature  
Mean Temperature 23 °F 24 °F  
Max Temperature 34 °F 33 °F 59 °F (1967)
Min Temperature 12 °F 15 °F -12 °F (1961)
Degree Days  
Heating Degree Days 42    
Cooling Degree Days 0    
Moisture  
Dew Point 12 °F    
Average Humidity 61    
Maximum Humidity 85    
Minimum Humidity 47    
Precipitation  
Precipitation 0.00 in 0.09 in 1.12 in (1979)
Month to date precipitation 2.51  
Year to date precipitation 2.51  
Snow  
Snow 0.00 in - - ()
Month to date snowfall  
Since 1 July snowfall  
Snow Depth 4.00 in    
Sea Level Pressure  
Sea Level Pressure 29.62 in    
Wind  
Wind Speed 11 mph (SSW)    
Max Wind Speed 17 mph    
Max Gust Speed 26 mph    
Visibility 9 miles    
Events Snow    
T = Trace of Precipitation, MM = Missing Value Source: NWS Daily Summary

Daily Weather History Graph

Daily Weather History Graph

Search for Another Location

Airport or City:

Trip Planner

Search our weather history database for the weather conditions in past years. The results will help you decide how hot, cold, wet, or windy it might be!

Date:

Astronomy

Jan. 25, 2014 Rise Set
Actual Time 7:07 AM EST 4:49 PM EST
Civil Twilight 6:36 AM EST 5:19 PM EST
Nautical Twilight 6:02 AM EST 5:54 PM EST
Astronomical Twilight 5:28 AM EST 6:27 PM EST
Moon 1:35 AM EST (1/25) 11:47 AM EST (1/25)
Length of Visible Light 10h 43m
Length of Day
9h 42m
Waning Crescent, 34% of the Moon is Illuminated
Jan 25
Waning Crescent
Jan 30
New
Feb 6
First Quarter
Feb 14
Full
Feb 22
Last Quarter

Hourly Weather History & Observations

Time (EST) Temp. Windchill Dew Point Humidity Pressure Visibility Wind Dir Wind Speed Gust Speed Precip Events Conditions
12:53 AM 12.9 °F -0.2 °F -2.9 °F 49% 30.01 in 10.0 mi South 10.4 mph - N/A   Scattered Clouds
1:53 AM 12.9 °F 1.6 °F -2.9 °F 49% 29.98 in 10.0 mi South 8.1 mph - N/A   Overcast
2:53 AM 12.9 °F 1.6 °F -2.9 °F 49% 29.94 in 10.0 mi South 8.1 mph - N/A   Overcast
3:53 AM 14.0 °F 2.0 °F -2.9 °F 47% 29.92 in 10.0 mi South 9.2 mph - N/A   Overcast
4:53 AM 12.9 °F -0.9 °F -2.0 °F 51% 29.91 in 10.0 mi South 11.5 mph - N/A   Scattered Clouds
5:53 AM 15.1 °F 1.8 °F 1.9 °F 56% 29.89 in 10.0 mi South 11.5 mph - N/A   Mostly Cloudy
6:53 AM 15.1 °F 2.5 °F 1.9 °F 56% 29.86 in 10.0 mi SSE 10.4 mph - N/A   Scattered Clouds
7:53 AM 16.0 °F 3.6 °F 5.0 °F 62% 29.82 in 10.0 mi SSE 10.4 mph - N/A   Mostly Cloudy
8:53 AM 18.0 °F 6.9 °F 7.0 °F 62% 29.78 in 10.0 mi South 9.2 mph - N/A   Mostly Cloudy
9:53 AM 21.9 °F 9.8 °F 10.9 °F 63% 29.75 in 10.0 mi South 12.7 mph 20.7 mph N/A   Scattered Clouds
10:53 AM 26.1 °F 15.6 °F 14.0 °F 60% 29.70 in 10.0 mi South 11.5 mph - N/A   Scattered Clouds
11:53 AM 30.0 °F 22.4 °F 17.1 °F 59% 29.63 in 10.0 mi South 8.1 mph - N/A   Overcast
12:53 PM 32.0 °F 23.0 °F 17.1 °F 54% 29.57 in 10.0 mi SSW 11.5 mph - N/A   Overcast
1:53 PM 34.0 °F 24.2 °F 17.1 °F 50% 29.52 in 10.0 mi SSW 15.0 mph 25.3 mph N/A   Overcast
2:53 PM 34.0 °F 24.2 °F 18.0 °F 52% 29.49 in 10.0 mi SSW 15.0 mph 25.3 mph N/A   Overcast
3:53 PM 34.0 °F 23.4 °F 17.1 °F 50% 29.46 in 10.0 mi South 17.3 mph 26.5 mph N/A   Overcast
4:53 PM 34.0 °F 26.6 °F 16.0 °F 48% 29.42 in 10.0 mi South 9.2 mph - N/A   Overcast
5:53 PM 32.0 °F 23.6 °F 21.0 °F 64% 29.41 in 9.0 mi South 10.4 mph - 0.00 in Snow Light Snow
6:08 PM 30.0 °F 20.5 °F 23.0 °F 75% 29.35 in 3.0 mi SSW 11.5 mph 17.3 mph 0.00 in Snow Light Snow
6:19 PM 30.0 °F 21.1 °F 24.1 °F 79% 29.35 in 1.5 mi SW 10.4 mph - 0.00 in Snow Light Snow
6:53 PM 27.0 °F 16.7 °F 23.0 °F 85% 29.41 in 1.0 mi WSW 11.5 mph - 0.00 in Snow Light Snow
7:53 PM 26.1 °F 15.6 °F 21.9 °F 84% 29.39 in 3.0 mi WSW 11.5 mph 17.3 mph 0.00 in Snow Light Snow
8:53 PM 26.1 °F 17.6 °F 19.9 °F 78% 29.38 in 5.0 mi WSW 8.1 mph - 0.00 in Snow Light Snow
9:53 PM 25.0 °F 15.5 °F 16.0 °F 69% 29.37 in 10.0 mi WSW 9.2 mph - 0.00 in   Mostly Cloudy
10:53 PM 24.1 °F 13.7 °F 15.1 °F 69% 29.35 in 10.0 mi WSW 10.4 mph - N/A   Mostly Cloudy
11:53 PM 24.1 °F 12.5 °F 15.1 °F 69% 29.35 in 10.0 mi WSW 12.7 mph - N/A   Overcast